• In Hungary
  • List of Countries
  • For 7 days
  • Water Temperature
  • Satellite Maps
  • Weather Map
  • News
  • Weather Widgets
  • user-avatar
    Login

    Hourly Weather Karniki

    Today, 25 May, Friday

    Time Temperature Precipitation Wind Pressure Humidity
    00:00 +13°C° 0 mm 4 mps 744 mmHg 83%
    01:00 +13°C° 0 mm 4 mps 744 mmHg 85%
    02:00 +12°C° 0 mm 4 mps 744 mmHg 87%
    03:00 +12°C° 0 mm 3 mps 744 mmHg 94%
    04:00 +12°C° 0 mm 4 mps 745 mmHg 93%
    05:00 +12°C° 0 mm 5 mps 745 mmHg 92%
    06:00 +12°C° 0 mm 5 mps 745 mmHg 92%
    07:00 +14°C° 0 mm 6 mps 745 mmHg 86%
    08:00 +15°C° 0 mm 6 mps 746 mmHg 80%
    09:00 +16°C° 0 mm 6 mps 746 mmHg 72%
    10:00 +16°C° 0 mm 6 mps 746 mmHg 68%
    11:00 +17°C° 0 mm 7 mps 747 mmHg 63%
    12:00 +17°C° 0 mm 7 mps 747 mmHg 58%
    13:00 +17°C° 0 mm 7 mps 747 mmHg 56%
    14:00 +17°C° 0 mm 7 mps 747 mmHg 54%
    15:00 +17°C° 0 mm 7 mps 748 mmHg 52%
    16:00 +17°C° 0 mm 6 mps 748 mmHg 54%
    17:00 +16°C° 0 mm 6 mps 748 mmHg 57%
    18:00 +16°C° 0 mm 5 mps 748 mmHg 60%
    19:00 +14°C° 0 mm 5 mps 748 mmHg 63%
    20:00 +13°C° 0 mm 5 mps 749 mmHg 65%
    21:00 +12°C° 0 mm 4 mps 750 mmHg 67%
    22:00 +11°C° 0 mm 4 mps 750 mmHg 67%
    23:00 +10°C° 0 mm 4 mps 750 mmHg 67%

    Tomorrow, 26 May, Saturday

    Time Temperature Precipitation Wind Pressure Humidity
    00:00 +8°C° 0 mm 4 mps 751 mmHg 67%
    01:00 +8°C° 0 mm 4 mps 751 mmHg 68%
    02:00 +7°C° 0 mm 4 mps 752 mmHg 68%
    03:00 +7°C° 0 mm 3 mps 752 mmHg 69%
    04:00 +7°C° 0 mm 3 mps 753 mmHg 70%
    05:00 +7°C° 0 mm 3 mps 753 mmHg 72%
    06:00 +8°C° 0 mm 3 mps 754 mmHg 73%
    07:00 +9°C° 0 mm 3 mps 754 mmHg 66%
    08:00 +11°C° 0 mm 4 mps 755 mmHg 59%
    09:00 +12°C° 0 mm 4 mps 755 mmHg 52%
    10:00 +13°C° 0 mm 4 mps 755 mmHg 51%
    11:00 +14°C° 0 mm 4 mps 755 mmHg 49%
    12:00 +15°C° 0 mm 4 mps 755 mmHg 48%
    13:00 +15°C° 0 mm 4 mps 755 mmHg 47%
    14:00 +17°C° 0 mm 4 mps 755 mmHg 46%
    15:00 +17°C° 0 mm 3 mps 755 mmHg 45%
    16:00 +17°C° 0 mm 3 mps 755 mmHg 47%
    17:00 +17°C° 0 mm 2 mps 754 mmHg 49%
    18:00 +17°C° 0 mm 2 mps 754 mmHg 50%
    19:00 +15°C° 0 mm 2 mps 754 mmHg 54%
    20:00 +13°C° 0 mm 1 mps 754 mmHg 58%
    21:00 +11°C° 0 mm 1 mps 754 mmHg 63%
    22:00 +11°C° 0 mm 1 mps 754 mmHg 64%
    23:00 +10°C° 0 mm 1 mps 755 mmHg 66%

    Day after tomorrow, 27 May, Sunday

    Time Temperature Precipitation Wind Pressure Humidity
    00:00 +9°C° 0 mm 2 mps 755 mmHg 68%
    01:00 +8°C° 0 mm 2 mps 755 mmHg 69%
    02:00 +8°C° 0 mm 2 mps 755 mmHg 71%
    03:00 +7°C° 0 mm 2 mps 755 mmHg 72%
    04:00 +8°C° 0 mm 2 mps 755 mmHg 73%
    05:00 +8°C° 0 mm 2 mps 755 mmHg 74%
    06:00 +9°C° 0 mm 2 mps 755 mmHg 75%
    07:00 +12°C° 0 mm 2 mps 754 mmHg 70%
    08:00 +13°C° 0 mm 2 mps 754 mmHg 65%
    09:00 +14°C° 0 mm 3 mps 754 mmHg 60%
    10:00 +16°C° 0 mm 3 mps 754 mmHg 57%
    11:00 +17°C° 0 mm 3 mps 753 mmHg 53%
    12:00 +18°C° 0 mm 3 mps 753 mmHg 50%
    13:00 +19°C° 0 mm 4 mps 752 mmHg 51%
    14:00 +19°C° 0 mm 4 mps 751 mmHg 51%
    15:00 +19°C° 0 mm 5 mps 751 mmHg 52%
    16:00 +19°C° 0 mm 4 mps 750 mmHg 56%
    17:00 +19°C° 0 mm 4 mps 750 mmHg 59%
    18:00 +19°C° 0 mm 4 mps 749 mmHg 63%
    19:00 +17°C° 0 mm 4 mps 749 mmHg 68%
    20:00 +15°C° 0 mm 4 mps 749 mmHg 72%
    21:00 +13°C° 0 mm 4 mps 749 mmHg 76%
    22:00 +13°C° 0 mm 4 mps 749 mmHg 77%
    23:00 +12°C° 0 mm 4 mps 749 mmHg 78%

    28 May, Monday

    Time Temperature Precipitation Wind Pressure Humidity
    00:00 +12°C° 0 mm 4 mps 749 mmHg 79%
    01:00 +12°C° 0 mm 3 mps 749 mmHg 82%
    02:00 +11°C° 0 mm 3 mps 749 mmHg 85%
    03:00 +11°C° 0 mm 3 mps 750 mmHg 88%
    04:00 +12°C° 0 mm 2 mps 750 mmHg 87%
    05:00 +12°C° 0 mm 2 mps 750 mmHg 85%
    06:00 +12°C° 0 mm 2 mps 750 mmHg 84%
    07:00 +12°C° 0 mm 3 mps 751 mmHg 77%
    08:00 +14°C° 0 mm 3 mps 751 mmHg 71%
    09:00 +15°C° 0 mm 4 mps 752 mmHg 64%
    10:00 +15°C° 0 mm 4 mps 752 mmHg 59%
    11:00 +17°C° 0 mm 4 mps 752 mmHg 54%
    12:00 +18°C° 0 mm 4 mps 752 mmHg 49%
    13:00 +18°C° 0 mm 4 mps 752 mmHg 48%
    14:00 +18°C° 0 mm 4 mps 752 mmHg 48%
    15:00 +18°C° 0 mm 4 mps 752 mmHg 47%
    16:00 +18°C° 0 mm 4 mps 752 mmHg 50%
    17:00 +18°C° 0 mm 3 mps 752 mmHg 53%
    18:00 +17°C° 0 mm 3 mps 752 mmHg 56%
    19:00 +16°C° 0 mm 3 mps 752 mmHg 59%
    20:00 +14°C° 0 mm 2 mps 752 mmHg 62%
    21:00 +12°C° 0 mm 2 mps 752 mmHg 65%
    22:00 +10°C° 0 mm 2 mps 753 mmHg 66%
    23:00 +9°C° 0 mm 2 mps 753 mmHg 67%

    29 May, Tuesday

    Time Temperature Precipitation Wind Pressure Humidity
    00:00 +8°C° 0 mm 2 mps 753 mmHg 67%
    01:00 +9°C° 0 mm 1 mps 753 mmHg 68%
    02:00 +8°C° 0 mm 1 mps 753 mmHg 68%
    03:00 +8°C° 0 mm 1 mps 753 mmHg 69%
    04:00 +9°C° 0 mm 1 mps 753 mmHg 69%
    05:00 +10°C° 0 mm 1 mps 753 mmHg 69%
    06:00 +10°C° 0 mm 1 mps 753 mmHg 69%
    07:00 +12°C° 0 mm 1 mps 753 mmHg 64%
    08:00 +14°C° 0 mm 2 mps 753 mmHg 59%
    09:00 +16°C° 0 mm 2 mps 753 mmHg 54%
    10:00 +17°C° 0 mm 2 mps 753 mmHg 51%
    11:00 +18°C° 0 mm 3 mps 752 mmHg 48%
    12:00 +19°C° 0 mm 3 mps 752 mmHg 46%
    13:00 +20°C° 0 mm 3 mps 751 mmHg 46%
    14:00 +21°C° 0 mm 3 mps 751 mmHg 46%
    15:00 +21°C° 0 mm 3 mps 750 mmHg 46%
    16:00 +21°C° 0 mm 3 mps 750 mmHg 50%
    17:00 +21°C° 0 mm 2 mps 749 mmHg 55%
    18:00 +21°C° 0 mm 2 mps 749 mmHg 59%
    19:00 +19°C° 0 mm 2 mps 749 mmHg 63%
    20:00 +17°C° 0 mm 2 mps 748 mmHg 67%
    21:00 +14°C° 0 mm 3 mps 748 mmHg 71%
    22:00 +13°C° 0 mm 3 mps 748 mmHg 72%
    23:00 +13°C° 0 mm 3 mps 747 mmHg 74%

    30 May, Wednesday

    Time Temperature Precipitation Wind Pressure Humidity
    00:00 +12°C° 0 mm 3 mps 747 mmHg 76%
    01:00 +12°C° 0 mm 3 mps 747 mmHg 77%
    02:00 +11°C° 0 mm 3 mps 746 mmHg 79%
    03:00 +11°C° 0 mm 4 mps 746 mmHg 80%
    04:00 +12°C° 0 mm 4 mps 746 mmHg 82%
    05:00 +13°C° 0 mm 4 mps 746 mmHg 84%
    06:00 +13°C° 0 mm 5 mps 745 mmHg 86%
    07:00 +15°C° 0 mm 5 mps 745 mmHg 82%
    08:00 +17°C° 0 mm 5 mps 745 mmHg 78%
    09:00 +20°C° 0 mm 5 mps 744 mmHg 74%
    10:00 +21°C° 0 mm 6 mps 744 mmHg 69%
    11:00 +22°C° 0 mm 6 mps 743 mmHg 64%
    12:00 +23°C° 0 mm 7 mps 743 mmHg 59%
    13:00 +24°C° 0 mm 7 mps 742 mmHg 58%
    14:00 +24°C° 0 mm 7 mps 742 mmHg 56%
    15:00 +24°C° 0 mm 7 mps 742 mmHg 55%
    16:00 +24°C° 0 mm 6 mps 741 mmHg 59%
    17:00 +25°C° 0 mm 5 mps 741 mmHg 63%
    18:00 +23°C° 0 mm 4 mps 740 mmHg 67%
    19:00 +22°C° 0 mm 4 mps 740 mmHg 71%
    20:00 +20°C° 0 mm 4 mps 740 mmHg 75%
    21:00 +19°C° 0 mm 4 mps 740 mmHg 80%
    22:00 +18°C° 0 mm 4 mps 740 mmHg 82%
    23:00 +17°C° 0 mm 4 mps 739 mmHg 85%
    Show more